Ellsworth AFB, SD

11:37 PM MST on November 19, 2017 (GMT -0700)
Ellsworth Air Force Base

Weather History for KRCA - February, 2012

Change the Weather History Date:

Sunday, February 26, 2012

  Actual Average Record
Temperature  
Mean Temperature 23 °F -  
Max Temperature 33 °F 35 °F 62 °F (2016)
Min Temperature 10 °F 16 °F -6 °F (2011)
Degree Days  
Heating Degree Days 42    
Moisture  
Dew Point 14 °F    
Average Humidity 67    
Maximum Humidity 81    
Minimum Humidity 58    
Precipitation  
Precipitation 0.00 in - - ()
Sea Level Pressure  
Sea Level Pressure 30.01 in    
Wind  
Wind Speed 25 mph (NNW)    
Max Wind Speed 40 mph    
Max Gust Speed 56 mph    
Visibility 10 miles    
Events Rain , Snow    
Averages and records for this station are not official NWS values.
T = Trace of Precipitation, MM = Missing Value Source: NWS Daily Summary

Daily Weather History Graph

Daily Weather History Graph

Search for Another Location

Airport or City:

Trip Planner

Search our weather history database for the weather conditions in past years. The results will help you decide how hot, cold, wet, or windy it might be!

Date:

Astronomy

Feb. 26, 2012 Rise Set
Actual Time 6:35 AM MST 5:36 PM MST
Civil Twilight 6:06 AM MST 6:05 PM MST
Nautical Twilight 5:32 AM MST 6:38 PM MST
Astronomical Twilight 4:59 AM MST 7:12 PM MST
Moon 8:18 AM MST (2/26) 10:49 PM MST (2/26)
Length of Visible Light 11h 59m
Length of Day
11h 00m
Waxing Crescent, 21% of the Moon is Illuminated
Feb 26
Waxing Crescent
Feb 29
First Quarter
Mar 8
Full
Mar 14
Last Quarter
Mar 22
New

Hourly Weather History & Observations

Time (MST) Temp. Windchill Dew Point Humidity Pressure Visibility Wind Dir Wind Speed Gust Speed Precip Events Conditions
12:33 AM 33.8 °F 20.1 °F 28.4 °F 81% 29.50 in 10.0 mi NNW 29.9 mph 40.3 mph N/A Rain Light Rain
12:45 AM 33.8 °F 20.3 °F 28.4 °F 81% 29.50 in 10.0 mi NW 28.8 mph 42.6 mph N/A   Partly Cloudy
12:55 AM 33.4 °F 21.1 °F 28.0 °F 81% 29.52 in 10.0 mi NW 23.0 mph 34.5 mph 0.00 in   Partly Cloudy
1:08 AM 33.8 °F 20.3 °F 28.4 °F 81% 29.52 in 10.0 mi NNW 28.8 mph 40.3 mph N/A Rain Light Rain
1:55 AM 33.6 °F 18.4 °F 23.9 °F 68% 29.54 in 10.0 mi NW 38.0 mph 56.4 mph 0.00 in   Clear
2:55 AM 32.2 °F 16.0 °F 21.7 °F 65% 29.57 in 10.0 mi NW 40.3 mph 52.9 mph N/A   Partly Cloudy
3:55 AM 31.1 °F 18.9 °F 21.7 °F 68% 29.65 in 10.0 mi NW 19.6 mph 28.8 mph N/A   Mostly Cloudy
4:55 AM 30.7 °F 20.0 °F 20.1 °F 65% 29.71 in 10.0 mi NW 15.0 mph 27.6 mph N/A   Mostly Cloudy
5:55 AM 29.3 °F 17.7 °F 20.3 °F 69% 29.75 in 10.0 mi North 16.1 mph - N/A   Overcast
6:55 AM 24.3 °F 9.3 °F 17.2 °F 75% 29.81 in 10.0 mi North 21.9 mph 26.5 mph N/A   Overcast
7:55 AM 24.6 °F 10.1 °F 17.6 °F 75% 29.84 in 10.0 mi North 20.7 mph 27.6 mph N/A   Overcast
8:26 AM 24.8 °F 9.0 °F 17.6 °F 74% 29.86 in 10.0 mi NNW 25.3 mph 29.9 mph N/A   Light Freezing Rain
8:36 AM 24.8 °F 8.7 °F 17.6 °F 74% 29.86 in 10.0 mi NNW 26.5 mph 32.2 mph N/A   Overcast
8:42 AM 26.6 °F 11.7 °F 17.6 °F 69% 29.86 in 10.0 mi NNW 24.2 mph 32.2 mph N/A   Overcast
8:54 AM 24.8 °F 9.0 °F 17.6 °F 74% 29.87 in 10.0 mi NNW 25.3 mph 35.7 mph N/A   Mostly Cloudy
8:55 AM 25.2 °F 8.9 °F 16.9 °F 71% 29.86 in 10.0 mi NNW 27.6 mph 35.7 mph 0.00 in   Mostly Cloudy
9:55 AM 27.1 °F 13.1 °F 16.9 °F 65% 29.92 in 10.0 mi NNW 21.9 mph 32.2 mph N/A   Mostly Cloudy
10:55 AM 26.6 °F 10.8 °F 16.0 °F 64% 29.94 in 10.0 mi NNW 27.6 mph 39.1 mph N/A   Partly Cloudy
11:55 AM 25.0 °F 7.6 °F 13.3 °F 61% 29.96 in 10.0 mi NNW 32.2 mph 42.6 mph N/A   Mostly Cloudy
12:55 PM 23.4 °F 7.4 °F 12.6 °F 63% 30.02 in 10.0 mi North 24.2 mph 36.8 mph N/A   Mostly Cloudy
1:55 PM 22.8 °F 5.4 °F 11.5 °F 62% 30.06 in 10.0 mi North 28.8 mph 36.8 mph N/A   Mostly Cloudy
2:55 PM 22.6 °F 4.9 °F 10.6 °F 60% 30.11 in 10.0 mi North 29.9 mph 38.0 mph N/A   Overcast
3:15 PM 23.0 °F 6.0 °F 10.4 °F 59% 30.12 in 10.0 mi North 27.6 mph 34.5 mph N/A Snow Light Snow
3:25 PM 23.0 °F 6.6 °F 10.4 °F 59% 30.13 in 10.0 mi NNW 25.3 mph 34.5 mph N/A   Overcast
3:28 PM 23.0 °F 6.9 °F 10.4 °F 59% 30.13 in 10.0 mi North 24.2 mph 34.5 mph N/A   Overcast
3:33 PM 23.0 °F 7.2 °F 10.4 °F 59% 30.13 in 10.0 mi North 23.0 mph 31.1 mph N/A   Overcast
3:37 PM 23.0 °F 6.3 °F 10.4 °F 59% 30.14 in 10.0 mi North 26.5 mph 31.1 mph N/A   Overcast
3:44 PM 21.2 °F 3.3 °F 10.4 °F 63% 30.14 in 10.0 mi North 28.8 mph 35.7 mph N/A   Overcast
3:54 PM 21.2 °F 3.5 °F 10.4 °F 63% 30.15 in 10.0 mi North 27.6 mph 34.5 mph N/A   Overcast
3:55 PM 21.9 °F 4.8 °F 10.8 °F 62% 30.15 in 10.0 mi North 26.5 mph 34.5 mph 0.00 in   Overcast
3:58 PM 21.2 °F 5.2 °F 10.4 °F 63% 30.15 in 10.0 mi North 21.9 mph 34.5 mph N/A   Overcast
4:05 PM 21.2 °F 4.5 °F 10.4 °F 63% 30.16 in 10.0 mi North 24.2 mph 34.5 mph N/A   Overcast
4:13 PM 21.2 °F 3.5 °F 10.4 °F 63% 30.16 in 10.0 mi North 27.6 mph 32.2 mph N/A   Overcast
4:24 PM 21.2 °F 3.5 °F 10.4 °F 63% 30.16 in 10.0 mi North 27.6 mph 38.0 mph N/A Snow Light Snow
4:29 PM 21.2 °F 3.5 °F 10.4 °F 63% 30.17 in 10.0 mi North 27.6 mph 38.0 mph N/A   Overcast
4:36 PM 21.2 °F 3.3 °F 8.6 °F 58% 30.17 in 10.0 mi NNW 28.8 mph 38.0 mph N/A Snow Light Snow
4:38 PM 21.2 °F 4.2 °F 8.6 °F 58% 30.17 in 10.0 mi North 25.3 mph 38.0 mph N/A Snow Light Snow
4:52 PM 21.2 °F 4.9 °F 8.6 °F 58% 30.18 in 10.0 mi North 23.0 mph 28.8 mph N/A   Overcast
4:55 PM 20.8 °F 4.0 °F 9.1 °F 61% 30.18 in 10.0 mi North 24.2 mph 28.8 mph 0.00 in   Overcast
5:55 PM 17.8 °F 1.9 °F 7.9 °F 65% 30.25 in 10.0 mi North 18.4 mph 26.5 mph N/A   Mostly Cloudy
5:59 PM 17.6 °F 2.2 °F 8.6 °F 68% 30.25 in 10.0 mi North 17.3 mph - N/A   Scattered Clouds
6:55 PM 16.5 °F 3.0 °F 8.2 °F 70% 30.30 in 10.0 mi North 12.7 mph - N/A   Clear
7:55 PM 14.7 °F 2.1 °F 8.1 °F 75% 30.33 in 10.0 mi North 10.4 mph - N/A   Clear
8:55 PM 14.2 °F 0.0 °F 7.7 °F 75% 30.36 in 10.0 mi North 12.7 mph - N/A   Clear
9:55 PM 13.6 °F -0.7 °F 7.2 °F 75% 30.37 in 10.0 mi North 12.7 mph - N/A   Clear
10:55 PM 13.5 °F 2.2 °F 6.6 °F 74% 30.40 in 10.0 mi North 8.1 mph - N/A   Clear
11:55 PM 10.6 °F - 5.7 °F 81% 30.40 in 10.0 mi Calm Calm - N/A   Clear